Miscellaneous Local Product
Issued by NWS North Platte, NE

Home | Current Version | Previous Version | Text Only | Print | Product List | Glossary On
Versions: 1 2 3 4 5 6 7 8 9 10 11 12 13 14 15 16 17 18 19 20 21 22 23 24 25 26 27 28 29 30 31 32 33 34 35 36 37 38 39 40 41 42 43 44 45 46 47 48 49 50
000
AXUS43 KLBF 200210
MISLBF


WESTERN AND NORTH CENTRAL NEBRASKA HOURLY WEATHER ROUNDUP
NATIONAL WEATHER SERVICE NORTH PLATTE NE
800 PM CST FRI DEC 19 2014

***STATIONS NOT REPORTING VARIABLES SUCH AS SKY/WEATHER OR
PRESSURE ARE PROVIDED BY THE NEBRASKA DEPARTMENT OF
ROADS...RAWS...AND APRS NETWORKS...AND ARE NOT UNDER
NATIONAL WEATHER SERVICE QUALITY CONTROL***

...OBSERVATIONS IN AND NEAR THE EASTERN PANHANDLE OF NEBRASKA...

CITY           SKY/WX    TMP DP  RH WIND       PRES   REMARKS
PINE RIDGE     CLEAR     25  19  78 CALM      29.97S
CHADRON        PTCLDY    24  18  77 W8        29.97S WCI  15
ALLIANCE       PTCLDY    20  18  92 W8        29.99R WCI  10
SIDNEY         PTCLDY    26  19  74 W12       30.02R WCI  16
WHITECLAY        N/A     22  17  79 SE6         N/A  WCI  15
CRESCENT LAKE    N/A     29  20  70 W6          N/A  WCI  23
LISCO            N/A     25  20  80 W5          N/A  WCI  19
BIG SPRINGS      N/A     27  25  90 W7          N/A  WCI  20
$$

...OBSERVATIONS IN NORTH CENTRAL NEBRASKA...

CITY           SKY/WX    TMP DP  RH WIND       PRES   REMARKS
VALENTINE      CLEAR     21  18  88 W6        29.98S WCI  13
THEDFORD       CLEAR     27  24  91 W7        29.99S WCI  19
AINSWORTH      CLEAR     20  20  96 SW5       29.98S FOG     WCI  14
O`NEILL        FOG       27  27 100 S7        30.03R VSB 3/4 WCI  20
BROKEN BOW     CLEAR     24  22  91 CALM      30.00S FOG
BROWNLEE         N/A     26  19  73 SW3         N/A
SPRINGVIEW       N/A     22  20  91 CALM        N/A
BREWSTER         N/A     25  25  99 CALM        N/A
ROSE             N/A     26  27 100 MISG        N/A
SARGENT          N/A     24  23  96 CALM        N/A
COMSTOCK         N/A     30  30 100 S5          N/A  WCI  25
CHAMBERS         N/A     27  27  98 CALM        N/A
EWING            N/A     28  27  97 S9          N/A  WCI  19
$$

...OBSERVATIONS IN SOUTHWEST NEBRASKA AND FAR NORTHEAST COLORADO...

CITY           SKY/WX    TMP DP  RH WIND       PRES   REMARKS
WRAY           FAIR      30  25  82 W8        30.04R WCI  22
HOLYOKE        FAIR      30  25  80 W5        30.03S WCI  25
IMPERIAL       CLEAR     31  26  82 W10       30.03R WCI  22
OGALLALA       CLEAR     27  24  89 W5        30.02S WCI  21
NORTH PLATTE   CLEAR     26  23  88 NW5       30.01F WCI  20
MCCOOK         CLEAR     29  24  82 NW7       30.03R WCI  22
LEXINGTON      CLEAR     25  24  95 CALM      30.03S FOG
PAXTON           N/A     27  24  88 CALM        N/A
BRADY            N/A     30  26  83 CALM        N/A
GOTHENBURG       N/A     34  26  74 CALM        N/A
CALLAWAY         N/A     32  29  87 W7          N/A  WCI  26
$$

...NORTH PLATTE AREA...

CITY           SKY/WX    TMP DP  RH WIND       PRES   REMARKS
AIRPORT        CLEAR     26  23  88 NW5       30.01F WCI  20
DOWNTOWN         N/A     31  27  84 CALM        N/A
$$

...SOME WEATHER OBSERVATIONS FROM AROUND THE REGION...

CITY           SKY/WX    TMP DP  RH WIND       PRES   REMARKS
DENVER         PTCLDY    28  16  60 S8        30.01R WCI  20
LARAMIE        PTCLDY    23  13  65 SW15      30.02S WCI  10
CHEYENNE       PTCLDY    31  13  47 SW7       30.00S WCI  24
SCOTTSBLUFF    MOCLDY    28  21  75 NW5       30.00S WCI  23
RAPID CITY     CLEAR     28  21  75 CALM      29.93S
PIERRE         PTCLDY    19  18  95 CALM      29.97S
WINNER         FAIR      25  20  81 SW8       29.98S WCI  16
SIOUX FALLS    CLOUDY    31  28  89 S10       30.08S WCI  22
OMAHA          DRIZZLE   31  29  92 S9        30.17S FOG     WCI  23
GRAND ISLAND   CLOUDY    34  32  92 S7        30.07S FOG     WCI  28
KANSAS CITY    CLOUDY    32  31  96 SW3       30.20S FOG
WICHITA        CLOUDY    37  33  85 S7        30.17F WCI  32
HAYS           CLEAR     36  27  69 SW9       30.08F WCI  29
LIBERAL        CLEAR     32  27  80 S7        30.13S WCI  26
GOODLAND       CLEAR     30  23  75 SW8       30.06R WCI  22
$$



USA.gov is the U.S. government's official web portal to all federal, state and local government web resources and services.